Time,TemperatureF,DewpointF,PressureIn,WindDirection,WindDirectionDegrees,WindSpeedMPH,WindSpeedGustMPH,Humidity,HourlyPrecipIn,Conditions,Clouds,dailyrainin,SolarRadiationWatts/m^2,SoftwareType,DateUTC
2013-03-25 00:22:00,43.0,14.0,-100.00,ENE,72,10.0,16.0,30,0.00,,,0.00,0.000000,,2013-03-25 07:22:00,
2013-03-25 00:31:00,43.0,14.0,-100.00,ENE,72,10.0,16.0,30,0.00,,,0.00,0.000000,,2013-03-25 07:31:00,
2013-03-25 00:42:00,43.0,14.0,-100.00,ENE,72,10.0,16.0,30,0.00,,,0.00,0.000000,,2013-03-25 07:42:00,
2013-03-25 00:51:00,43.0,10.0,-100.00,NNW,344,8.0,15.0,26,0.00,,,0.00,0.000000,,2013-03-25 07:51:00,
2013-03-25 01:12:00,43.0,10.0,-100.00,NNW,344,8.0,15.0,26,0.00,,,0.00,0.000000,,2013-03-25 08:12:00,
2013-03-25 01:22:00,43.0,10.0,-100.00,NNW,344,8.0,15.0,26,0.00,,,0.00,0.000000,,2013-03-25 08:22:00,
2013-03-25 01:32:00,43.0,10.0,-100.00,NNW,344,8.0,15.0,26,0.00,,,0.00,0.000000,,2013-03-25 08:32:00,
2013-03-25 01:42:00,43.0,10.0,-100.00,NNW,344,8.0,15.0,26,0.00,,,0.00,0.000000,,2013-03-25 08:42:00,
2013-03-25 02:12:00,44.0,6.0,-100.00,NNW,344,7.0,13.0,20,0.00,,,0.00,0.000000,,2013-03-25 09:12:00,
2013-03-25 02:22:00,44.0,6.0,-100.00,NNW,344,7.0,13.0,20,0.00,,,0.00,0.000000,,2013-03-25 09:22:00,
2013-03-25 03:12:00,42.0,3.0,-100.00,North,7,9.0,13.0,19,0.00,,,0.00,0.000000,,2013-03-25 10:12:00,
2013-03-25 03:22:00,42.0,3.0,-100.00,North,7,9.0,13.0,19,0.00,,,0.00,0.000000,,2013-03-25 10:22:00,
2013-03-25 04:12:00,43.0,5.0,-100.00,SE,124,9.0,15.0,20,0.00,,,0.00,0.000000,,2013-03-25 11:12:00,
2013-03-25 04:23:00,43.0,5.0,-100.00,SE,124,9.0,15.0,20,0.00,,,0.00,0.000000,,2013-03-25 11:23:00,
2013-03-25 04:51:00,43.0,10.0,-100.00,North,10,9.0,12.0,26,0.00,,,0.00,0.000000,,2013-03-25 11:51:00,
2013-03-25 05:12:00,43.0,10.0,-100.00,North,10,9.0,12.0,26,0.00,,,0.00,0.000000,,2013-03-25 12:12:00,
2013-03-25 05:23:00,43.0,10.0,-100.00,North,10,9.0,12.0,26,0.00,,,0.00,0.000000,,2013-03-25 12:23:00,
2013-03-25 05:32:00,43.0,10.0,-100.00,North,10,9.0,12.0,26,0.00,,,0.00,0.000000,,2013-03-25 12:32:00,
2013-03-25 05:42:00,43.0,10.0,-100.00,North,10,9.0,12.0,26,0.00,,,0.00,0.000000,,2013-03-25 12:42:00,
2013-03-25 05:51:00,42.0,10.0,-100.00,North,358,10.0,13.0,27,0.00,,,0.00,0.000000,,2013-03-25 12:51:00,
2013-03-25 06:13:00,42.0,10.0,-100.00,North,358,10.0,13.0,27,0.00,,,0.00,0.000000,,2013-03-25 13:13:00,
2013-03-25 06:22:00,42.0,10.0,-100.00,North,358,10.0,13.0,27,0.00,,,0.00,0.000000,,2013-03-25 13:22:00,
2013-03-25 06:32:00,42.0,10.0,-100.00,North,358,10.0,13.0,27,0.00,,,0.00,0.000000,,2013-03-25 13:32:00,
2013-03-25 06:42:00,42.0,10.0,-100.00,North,358,10.0,13.0,27,0.00,,,0.00,0.000000,,2013-03-25 13:42:00,
2013-03-25 07:12:00,44.0,-23.0,-100.00,West,281,9.0,15.0,5,0.00,,,0.00,0.000000,,2013-03-25 14:12:00,
2013-03-25 07:22:00,44.0,-23.0,-100.00,West,281,9.0,15.0,5,0.00,,,0.00,0.000000,,2013-03-25 14:22:00,
2013-03-25 08:22:00,44.0,-23.0,-100.00,West,261,8.0,13.0,5,0.00,,,0.00,38.000000,,2013-03-25 15:22:00,
2013-03-25 10:12:00,51.0,-27.0,-100.00,NW,323,6.0,11.0,3,0.00,,,0.00,446.000000,,2013-03-25 17:12:00,
2013-03-25 11:12:00,57.0,-6.0,-100.00,West,261,1.0,9.0,7,0.00,,,0.00,891.000000,,2013-03-25 18:12:00,
2013-03-25 11:22:00,57.0,-6.0,-100.00,West,261,1.0,9.0,7,0.00,,,0.00,891.000000,,2013-03-25 18:22:00,
2013-03-25 11:51:00,58.0,15.0,-100.00,NW,315,1.0,7.0,18,0.00,,,0.00,998.000000,,2013-03-25 18:51:00,
2013-03-25 12:12:00,58.0,15.0,-100.00,NW,315,1.0,7.0,18,0.00,,,0.00,998.000000,,2013-03-25 19:12:00,
2013-03-25 12:22:00,58.0,15.0,-100.00,NW,315,1.0,7.0,18,0.00,,,0.00,998.000000,,2013-03-25 19:22:00,
2013-03-25 12:42:00,58.0,15.0,-100.00,NW,315,1.0,7.0,18,0.00,,,0.00,998.000000,,2013-03-25 19:42:00,
2013-03-25 12:51:00,59.0,24.0,-100.00,NW,317,2.0,8.0,26,0.00,,,-99.99,1073.000000,,2013-03-25 19:51:00,
2013-03-25 13:12:00,59.0,24.0,-100.00,NW,317,2.0,8.0,26,0.00,,,-99.99,1073.000000,,2013-03-25 20:12:00,
2013-03-25 13:22:00,59.0,24.0,-100.00,NW,317,2.0,8.0,26,0.00,,,-99.99,1073.000000,,2013-03-25 20:22:00,
2013-03-25 13:42:00,59.0,24.0,-100.00,NW,317,2.0,8.0,26,0.00,,,-99.99,1073.000000,,2013-03-25 20:42:00,
2013-03-25 14:22:00,54.0,4.0,-100.00,NNW,329,3.0,8.0,13,-99.99,,,0.00,898.000000,,2013-03-25 21:22:00,
2013-03-25 14:51:00,52.0,3.0,-100.00,NW,317,4.0,11.0,13,0.00,,,0.00,951.000000,,2013-03-25 21:51:00,
2013-03-25 15:23:00,52.0,3.0,-100.00,NW,317,4.0,11.0,13,0.00,,,0.00,951.000000,,2013-03-25 22:23:00,
2013-03-25 15:42:00,52.0,3.0,-100.00,NW,317,4.0,11.0,13,0.00,,,0.00,951.000000,,2013-03-25 22:42:00,
2013-03-25 15:51:00,52.0,9.0,-100.00,NW,317,2.0,10.0,17,0.00,,,0.00,636.000000,,2013-03-25 22:51:00,
2013-03-25 16:12:00,52.0,9.0,-100.00,NW,317,2.0,10.0,17,0.00,,,0.00,636.000000,,2013-03-25 23:12:00,
2013-03-25 16:22:00,52.0,9.0,-100.00,NW,317,2.0,10.0,17,0.00,,,0.00,636.000000,,2013-03-25 23:22:00,
2013-03-25 16:42:00,52.0,9.0,-100.00,NW,317,2.0,10.0,17,0.00,,,0.00,636.000000,,2013-03-25 23:42:00,
2013-03-25 17:12:00,51.0,-2.0,-100.00,NNW,344,3.0,13.0,11,0.00,,,0.00,370.000000,,2013-03-26 00:12:00,
2013-03-25 17:22:00,51.0,-2.0,-100.00,NNW,344,3.0,13.0,11,0.00,,,0.00,370.000000,,2013-03-26 00:22:00,
2013-03-25 17:51:00,48.0,-4.0,-100.00,North,349,5.0,12.0,11,0.00,,,0.00,287.000000,,2013-03-26 00:51:00,
2013-03-25 18:12:00,48.0,-4.0,-100.00,North,349,5.0,12.0,11,0.00,,,0.00,287.000000,,2013-03-26 01:12:00,
2013-03-25 18:22:00,48.0,-4.0,-100.00,North,349,5.0,12.0,11,0.00,,,0.00,287.000000,,2013-03-26 01:22:00,
2013-03-25 18:32:00,48.0,-4.0,-100.00,North,349,5.0,12.0,11,0.00,,,0.00,287.000000,,2013-03-26 01:32:00,
2013-03-25 18:42:00,48.0,-4.0,-100.00,North,349,5.0,12.0,11,0.00,,,0.00,287.000000,,2013-03-26 01:42:00,
2013-03-25 19:22:00,46.0,-21.0,-100.00,ESE,110,6.0,13.0,5,0.00,,,0.00,75.000000,,2013-03-26 02:22:00,
2013-03-25 20:12:00,44.0,-32.0,-100.00,SSE,168,5.0,11.0,3,0.00,,,0.00,5.000000,,2013-03-26 03:12:00,
2013-03-25 20:22:00,44.0,-32.0,-100.00,SSE,168,5.0,11.0,3,0.00,,,0.00,5.000000,,2013-03-26 03:22:00,
2013-03-25 21:12:00,43.0,-27.0,-100.00,WNW,289,4.0,9.0,4,0.00,,,0.00,0.000000,,2013-03-26 04:12:00,
2013-03-25 21:23:00,43.0,-27.0,-100.00,WNW,289,4.0,9.0,4,0.00,,,0.00,0.000000,,2013-03-26 04:23:00,
2013-03-25 22:12:00,43.0,-33.0,-100.00,WNW,287,5.0,8.0,3,0.00,,,0.00,0.000000,,2013-03-26 05:12:00,
2013-03-25 23:12:00,40.0,-25.0,-100.00,NE,34,8.0,12.0,5,0.00,,,0.00,0.000000,,2013-03-26 06:12:00,
2013-03-25 23:22:00,40.0,-25.0,-100.00,NE,34,8.0,12.0,5,0.00,,,0.00,0.000000,,2013-03-26 06:22:00,
2013-03-25 23:51:00,40.0,12.0,-100.00,North,2,11.0,18.0,31,0.00,,,0.00,0.000000,,2013-03-26 06:51:00,